Location: Ch�ze
(42.9000°N, 0.0333°W)
Time: 19:28:40
(UTC+00:00)

CZ-2C R/B - Pass Details

Date: 24 January 2021
Orbit: 785 x 870 km, 98.2° (Epoch: 08 March)

Event Time Altitude Azimuth Distance (km) Brightness Sun altitude
Exits shadow 18:10:25 14° 52° (NE) 2,226 4.3 -12.5°
Maximum altitude 18:13:31 22° 92° (E) 1,828 3.9 -13.0°
Drops below altitude 10° 18:17:42 10° 141° (SE) 2,510 4.9 -13.8°
Sets 18:20:40 0° 156° (SSE) 3,443 5.8 -14.3°
